Printer-friendly version
Follow the MPC on Twitter Follow the MPC on Facebook The MPC blog
Minor Planet Center

MPEC 2010-P62 : 2010 PW58

The following Minor Planet Electronic Circular may be linked-to from your own Web pages, but must not otherwise be redistributed electronically.

A form allowing access to any MPEC is at the bottom of this page.


Read MPEC 2010-P61 Read MPEC 2010-P63


M.P.E.C. 2010-P62                                Issued 2010 Aug. 14, 18:29 UT

     The Minor Planet Electronic Circulars contain information on unusual
         minor planets and routine data on comets.  They are published
   on behalf of Commission 20 of the International Astronomical Union by the
          Minor Planet Center, Smithsonian Astrophysical Observatory,
                          Cambridge, MA 02138, U.S.A.

             Prepared using the Tamkin Foundation Computer Network

                              MPC@CFA.HARVARD.EDU
       URL http://www.minorplanetcenter.org/iau/mpc.html  ISSN 1523-6714

                                   2010 PW58

Observations:
     K10P58W* S2010 08 05.82407 14 15 50.24 -47 54 22.0          21   R EP062C51
     K10P58W  s2010 08 05.82407 1 - 2981.9919 - 3515.1607 - 5154.0473   EP062C51
     K10P58W  S2010 08 05.95637 14 16 21.53 -47 43 30.7                 EP062C51
     K10P58W  s2010 08 05.95637 1 - 2975.2092 - 3522.3885 - 5152.9068   EP062C51
     K10P58W  S2010 08 06.08867 14 16 52.45 -47 32 36.1                 EP062C51
     K10P58W  s2010 08 06.08867 1 - 2966.8871 - 3528.9901 - 5153.0453   EP062C51
     K10P58W  S2010 08 06.22098 14 17 23.31 -47 21 42.6                 EP062C51
     K10P58W  s2010 08 06.22098 1 - 2959.5776 - 3536.3843 - 5152.0126   EP062C51
     K10P58W  S2010 08 06.28719 14 17 38.71 -47 16 16.5                 EP062C51
     K10P58W  s2010 08 06.28719 1 - 2982.0045 - 3558.3492 - 5123.7828   EP062C51
     K10P58W  S2010 08 06.35328 14 17 53.95 -47 10 48.3                 EP062C51
     K10P58W  s2010 08 06.35328 1 - 2953.1690 - 3544.2187 - 5150.3575   EP062C51
     K10P58W  S2010 08 06.41950 14 18 09.28 -47 05 20.8                 EP062C51
     K10P58W  s2010 08 06.41950 1 - 2975.6175 - 3566.1639 - 5122.3459   EP062C51
     K10P58W  S2010 08 06.48571 14 18 24.58 -46 59 52.7                 EP062C51
     K10P58W  s2010 08 06.48571 1 - 2997.4007 - 3587.5194 - 5094.6277   EP062C51
     K10P58W  S2010 08 06.55180 14 18 39.80 -46 54 25.6                 EP062C51
     K10P58W  s2010 08 06.55180 1 - 2968.0344 - 3572.8560 - 5121.9397   EP062C51
     K10P58W  S2010 08 06.68410 14 19 10.09 -46 43 29.2                 EP062C51
     K10P58W  s2010 08 06.68410 1 - 2960.2716 - 3580.2756 - 5121.2989   EP062C51
     K10P58W QC2010 08 13.40977 14 41 49.24 -37 22 22.3          20   V EP062E12
     K10P58W QC2010 08 13.41490 14 41 49.99 -37 21 56.1                 EP062E12
     K10P58W QC2010 08 14.39285 14 44 42.27 -36 00 19.8                 EP062E12

Observer details:
C51 WISE.  Measurers A. K. Mainzer, E. L. Wright, J. M. Bauer, T. Grav,
    J. W. Dailey, J. R. Masiero, R. M. Cutri, R. S. McMillan,
    R. G. Walker. (http://wise.ssl.berkeley.edu/mission_sci.html).
E12 Siding Spring Survey.  Observer R. H. McNaught.  0.5-m Uppsala Schmidt
    + CCD.

Orbital elements:
2010 PW58                                           PHA, Earth MOID = 0.0219 AU
Epoch 2010 July 23.0 TT = JDT 2455400.5                 MPC
M 207.26292              (2000.0)            P               Q
n   1.17728038     Peri.  130.98979     -0.10896250     -0.98362334
a   0.8882791      Node   324.48230     +0.82161639     -0.00782049
e   0.2128026      Incl.   14.30760     +0.55952988     -0.18006656
P   0.84           H   21.1           G   0.15           U   8
Residuals in seconds of arc
100805 C51  0.1-  0.6+    100806 C51  0.7-  0.1-    100813 E12  0.5+  0.0
100805 C51  1.0+  0.9-    100806 C51  0.4-  0.0     100813 E12  0.4-  0.1-
100806 C51  0.0   0.4+    100806 C51  0.1-  0.6+    100814 E12  0.1-  0.0
100806 C51  0.0   0.0     100806 C51  0.1+  0.0
100806 C51  0.1+  1.0-    100806 C51  0.1-  0.6+

Ephemeris:
2010 PW58                a,e,i = 0.89, 0.21, 14                  q = 0.6993
Date    TT    R. A. (2000) Decl.     Delta      r     Elong.  Phase     V
2010 08 12    14 37.55   -39 20.3    0.161    1.028    90.5    80.5    20.0
2010 08 22    15 03.87   -25 37.6    0.167    1.002    82.1    88.4    20.3
2010 09 01    15 21.59   -12 57.2    0.178    0.973    73.2    96.8    20.8
2010 09 11    15 31.63   -01 45.2    0.192    0.939    64.2   105.2    21.3
2010 09 21    15 33.38   +07 52.5    0.210    0.902    55.6   113.3    21.9
2010 10 01    15 25.41   +15 42.6    0.230    0.863    47.7   120.9    22.5
2010 10 11    15 07.51   +21 08.7    0.255    0.824    41.2   127.0    23.1

Carl W. Hergenrother         (C) Copyright 2010 MPC           M.P.E.C. 2010-P62

Read MPEC 2010-P61 Read MPEC 2010-P63


MPEC number:

Enter an MPEC number in one of the following forms:

  • 1997-B01 (the full form)
  • J97B01 (the packed version of the full form)
  • B01 (the abbreviated form)

Valid HTML 4.01!